TimeAKDT,TemperatureF,Dew PointF,Humidity,Sea Level PressureIn,VisibilityMPH,Wind Direction,Wind SpeedMPH,Gust SpeedMPH,PrecipitationIn,Events,Conditions,WindDirDegrees,DateUTC
12:31 AM,33.8,33.8,100,29.95,2.5,SSW,5.8,-,0.00,Snow,Light Snow,200,2013-03-16 08:31:00
12:34 AM,33.8,33.8,100,29.95,1.8,SSW,4.6,-,0.01,Snow,Light Snow,210,2013-03-16 08:34:00
12:42 AM,33.8,33.8,100,29.95,1.2,SSE,5.8,-,0.02,Snow,Light Snow,160,2013-03-16 08:42:00
12:53 AM,33.1,32.0,96,29.96,0.8,South,3.5,-,0.05,Snow,Light Snow,190,2013-03-16 08:53:00
1:09 AM,33.8,33.8,100,29.96,0.5,Calm,Calm,-,0.06,Fog-Snow,Snow,0,2013-03-16 09:09:00
1:29 AM,33.8,32.0,93,29.95,1.0,ENE,5.8,-,0.11,Snow,Light Snow,70,2013-03-16 09:29:00
1:37 AM,33.8,32.0,93,29.95,2.5,ENE,4.6,-,0.11,Snow,Light Snow,70,2013-03-16 09:37:00
1:40 AM,33.8,32.0,93,29.95,4.0,East,5.8,-,0.11,Snow,Light Snow,80,2013-03-16 09:40:00
1:49 AM,33.8,32.0,93,29.95,9.0,East,6.9,-,0.11,Snow,Light Snow,80,2013-03-16 09:49:00
1:53 AM,33.1,32.0,96,29.95,9.0,ESE,6.9,-,0.11,,Overcast,110,2013-03-16 09:53:00
2:21 AM,33.8,32.0,93,29.95,3.0,East,10.4,-,0.00,Snow,Light Snow,90,2013-03-16 10:21:00
2:45 AM,33.8,32.0,93,29.95,9.0,East,5.8,-,0.00,,Overcast,90,2013-03-16 10:45:00
2:53 AM,33.1,32.0,96,29.94,10.0,East,6.9,-,0.00,,Overcast,100,2013-03-16 10:53:00
3:53 AM,33.1,30.9,92,29.93,10.0,ESE,8.1,-,N/A,,Clear,110,2013-03-16 11:53:00
4:53 AM,30.9,28.9,92,29.92,10.0,East,4.6,-,N/A,,Clear,90,2013-03-16 12:53:00
5:53 AM,32.0,27.0,82,29.92,10.0,East,9.2,-,N/A,,Clear,90,2013-03-16 13:53:00
6:53 AM,30.0,27.0,88,29.93,10.0,East,4.6,-,N/A,,Partly Cloudy,90,2013-03-16 14:53:00
7:53 AM,30.0,26.1,85,29.93,10.0,ENE,5.8,-,N/A,,Scattered Clouds,60,2013-03-16 15:53:00
8:53 AM,30.0,28.0,92,29.93,10.0,ESE,3.5,-,N/A,,Overcast,120,2013-03-16 16:53:00
9:53 AM,34.0,30.9,89,29.93,10.0,NNW,3.5,-,N/A,,Mostly Cloudy,330,2013-03-16 17:53:00
10:53 AM,35.1,30.0,82,29.94,10.0,NNW,6.9,-,N/A,,Mostly Cloudy,340,2013-03-16 18:53:00
11:53 AM,36.0,30.0,79,29.94,10.0,NNW,10.4,-,N/A,,Partly Cloudy,330,2013-03-16 19:53:00
12:53 PM,36.0,28.9,76,29.95,10.0,NW,8.1,-,N/A,,Partly Cloudy,320,2013-03-16 20:53:00
1:53 PM,37.0,30.0,76,29.95,10.0,NNW,10.4,-,N/A,,Partly Cloudy,330,2013-03-16 21:53:00
2:53 PM,37.9,30.0,73,29.95,10.0,NW,8.1,-,N/A,,Scattered Clouds,320,2013-03-16 22:53:00
3:53 PM,37.9,32.0,79,29.94,10.0,NW,11.5,-,N/A,,Scattered Clouds,320,2013-03-16 23:53:00
4:53 PM,37.9,30.9,76,29.94,10.0,NW,13.8,-,N/A,,Scattered Clouds,310,2013-03-17 00:53:00
5:53 PM,37.9,30.9,76,29.94,10.0,NW,10.4,-,N/A,,Scattered Clouds,320,2013-03-17 01:53:00
6:53 PM,37.0,30.9,79,29.94,10.0,NNW,10.4,-,N/A,,Scattered Clouds,330,2013-03-17 02:53:00
7:53 PM,36.0,30.9,82,29.95,10.0,North,4.6,-,N/A,,Scattered Clouds,10,2013-03-17 03:53:00
8:53 PM,32.0,30.0,92,29.96,10.0,NE,4.6,-,N/A,,Clear,50,2013-03-17 04:53:00
9:53 PM,32.0,30.0,92,29.97,10.0,Calm,Calm,-,N/A,,Clear,0,2013-03-17 05:53:00
10:53 PM,30.9,28.9,92,29.98,10.0,Calm,Calm,-,N/A,,Clear,0,2013-03-17 06:53:00
11:24 PM,30.2,30.2,100,29.98,10.0,Calm,Calm,-,N/A,,Mostly Cloudy,0,2013-03-17 07:24:00
11:31 PM,30.2,30.2,100,29.98,10.0,Calm,Calm,-,N/A,,Mostly Cloudy,0,2013-03-17 07:31:00
11:53 PM,33.1,30.9,92,29.99,10.0,Calm,Calm,-,N/A,,Overcast,0,2013-03-17 07:53:00